E24YPM-1 Weather Reports


time (UTC)temp
C
wind
direction
speed
KPH
gust
KPH
rain 1hr
cm
rain 24hr
cm
rain mn
cm
humidity
%
barometer
mb
20260505032313 33 0 0.0 0.0 0.00 0.00 0.00 51 1007.0
20260505030821 33 0 0.0 0.0 0.00 0.00 0.00 51 1008.0
20260505025230 33 0 0.0 0.0 0.00 0.00 0.00 51 1008.0
20260505023716 33 0 0.0 0.0 0.00 0.00 0.00 51 1008.0
20260505022204 33 0 0.0 0.0 0.00 0.00 0.00 52 1008.0
20260505020652 33 0 0.0 0.0 0.00 0.00 0.00 53 1008.0
20260505015139 33 0 0.0 0.0 0.00 0.00 0.00 53 1008.0
20260505013623 33 0 0.0 0.0 0.00 0.00 0.00 54 1008.0
20260505012111 33 0 0.0 0.0 0.00 0.00 0.00 54 1008.0
20260505010555 33 0 0.0 0.0 0.00 0.00 0.00 55 1007.0
20260505005043 33 0 0.0 0.0 0.00 0.00 0.00 55 1007.0
20260505003531 33 0 0.0 0.0 0.00 0.00 0.00 55 1007.0
20260505002018 33 0 0.0 0.0 0.00 0.00 0.00 54 1007.0
20260505000505 33 0 0.0 0.0 0.00 0.00 0.00 53 1007.0
20260504234950 33 0 0.0 0.0 0.00 0.00 0.00 51 1007.0
20260504233436 33 0 0.0 0.0 0.00 0.00 0.00 50 1007.0
20260504231922 33 0 0.0 0.0 0.00 0.00 0.00 49 1007.0
20260504230405 33 0 0.0 0.0 0.00 0.00 0.00 50 1007.0
20260504224842 33 0 0.0 0.0 0.00 0.00 0.00 49 1007.0
20260504223328 33 0 0.0 0.0 0.00 0.00 0.00 49 1006.0
20260504221816 33 0 0.0 0.0 0.00 0.00 0.00 48 1006.0
20260504220317 33 0 0.0 0.0 0.00 0.00 0.00 48 1007.0
20260504214747 33 0 0.0 0.0 0.00 0.00 0.00 48 1006.0
20260504213235 33 0 0.0 0.0 0.00 0.00 0.00 47 1006.0
20260504211722 33 0 0.0 0.0 0.00 0.00 0.00 46 1006.0
20260504210209 33 0 0.0 0.0 0.00 0.00 0.00 44 1006.0
20260504204656 32 0 0.0 0.0 0.00 0.00 0.00 43 1005.0
20260504203144 32 0 0.0 0.0 0.00 0.00 0.00 40 1005.0
20260504201632 32 0 0.0 0.0 0.00 0.00 0.00 37 1005.0
20260504200120 31 0 0.0 0.0 0.00 0.00 0.00 32 1005.0
20260504194606 31 0 0.0 0.0 0.00 0.00 0.00 31 1005.0
20260504193253 31 0 0.0 0.0 0.00 0.00 0.00 30 1005.0
20260504191534 31 0 0.0 0.0 0.00 0.00 0.00 29 1005.0
20260504190019 31 0 0.0 0.0 0.00 0.00 0.00 29 1005.0
20260504184505 31 0 0.0 0.0 0.00 0.00 0.00 29 1005.0
20260504182952 31 0 0.0 0.0 0.00 0.00 0.00 30 1005.0
20260504181441 31 0 0.0 0.0 0.00 0.00 0.00 30 1005.0
20260504175937 31 0 0.0 0.0 0.00 0.00 0.00 30 1005.0
20260504174429 31 0 0.0 0.0 0.00 0.00 0.00 30 1005.0
20260504173036 31 0 0.0 0.0 0.00 0.00 0.00 30 1006.0
20260504171359 32 0 0.0 0.0 0.00 0.00 0.00 30 1006.0
20260504141124 32 0 0.0 0.0 0.00 0.00 0.00 33 1004.0
20260504080619 36 0 0.0 0.0 0.00 0.00 0.00 51 1001.0
20260504044550 36 0 0.0 0.0 0.00 0.00 0.00 48 1005.0
20260504043035 36 0 0.0 0.0 0.00 0.00 0.00 50 1005.0
20260504035941 36 0 0.0 0.0 0.00 0.00 0.00 50 1006.0
20260504034317 36 0 0.0 0.0 0.00 0.00 0.00 51 1006.0
20260504032802 36 0 0.0 0.0 0.00 0.00 0.00 51 1006.0